Station FRDF1 - 8720030 - Fernandina Beach, FL Image indicating link to RSS feed of recent meteorological observations for station FRDF1


Conditions at FRDF1 as of
(2:54 am EDT)
0654 GMT on 05/30/2024:
     

Click on the graph icon in the table below to see a time series plot of the last five days of that observation.

5-day plot - Wind Direction Wind Direction (WDIR):NNW ( 340 deg true )
5-day plot - Wind Speed Wind Speed (WSPD): 6.0 kts
5-day plot - Wind Gust Wind Gust (GST): 11.1 kts
5-day plot - Atmospheric Pressure Atmospheric Pressure (PRES):30.01 in
5-day plot - Air Temperature Air Temperature (ATMP): 80.1 °F
5-day plot - Water Temperature Water Temperature (WTMP): 80.8 °F
5-day plot - Wind Speed at 10 Meters Wind Speed at 10 meters (WSPD10M): 5.8 kts
5-day plot - Wind Speed at 20 Meters Wind Speed at 20 meters (WSPD20M): 7.8 kts
5-day plot -  Wind Speed, Wind Gust and Atmospheric Pressure Combined plot of Wind Speed, Gust, and Air Pressure
NOS Water Level Observation Network Water Level
Previous observations
TIME
(EDT)
5-day plot - Wind Direction
WDIR
 
5-day plot - Wind Speed
WSPD
kts
5-day plot - Wind Gust
GST
kts
5-day plot - Wave Height
WVHT
ft
5-day plot - Dominant Wave Period
DPD
sec
5-day plot - Average Wave Period
APD
sec
5-day plot - Mean Wave Direction
MWD
 
5-day plot - Atmospheric Pressure
PRES
in
5-day plot - Pressure Tendency
PTDY
in
5-day plot - Air Temperature
ATMP
°F
5-day plot - Water Temperature
WTMP
°F
5-day plot - Dew Point
DEWP
°F
5-day plot - Salinity
SAL
psu
5-day plot - Visibility
VIS
nmi
5-day plot - Tide (above MLLW)
TIDE
ft
2024-05-30 02:48 amNNW 6.0 9.9----30.01- 80.2 81.0----
2024-05-30 02:42 amNNW 6.0 9.9----30.01- 80.2 81.0----
2024-05-30 02:36 amNNW 5.1 8.0----30.01- 80.2 81.0----
2024-05-30 02:30 amNNW 6.0 8.9----30.01- 80.2 81.0----
2024-05-30 02:24 amNNW 6.0 9.9----30.01- 80.2 81.1----
2024-05-30 02:18 amNNW 5.1 8.9----30.01- 80.4 81.1----
2024-05-30 02:12 amNNW 5.1 9.9----30.01- 80.4 81.3----
2024-05-30 02:06 amNNW 5.1 8.0----30.01- 80.2 81.3----
2024-05-30 02:00 amNNW 4.1 8.0----30.01+0.00 79.7 81.5----
2024-05-30 01:54 amNNW 4.1 6.0----30.01- 79.7 81.7----
2024-05-30 01:48 amNNW 5.1 7.0----30.01-- 81.7----
2024-05-30 01:42 amNNW 2.9 4.1----30.02-- 81.9----
2024-05-30 01:36 am NW 2.9 5.1----30.02-- 82.0----
2024-05-30 01:30 amNNW 1.9 4.1----30.02- 79.7 82.2----
2024-05-30 01:24 amNNW 2.9 5.1----30.02- 79.3 82.2----
2024-05-30 01:18 am N 2.9 6.0----30.01- 79.0 82.4----
2024-05-30 01:12 amNNW 2.9 5.1----30.02- 78.6 82.4----
2024-05-30 01:06 am NW 4.1 7.0----30.02- 79.0 82.6----
2024-05-30 01:00 amNNW 4.1 7.0----30.02+0.02 79.2 82.8----
2024-05-30 12:54 am NW 4.1 6.0----30.02- 79.2 82.8----
2024-05-30 12:48 am NW 4.1 7.0----30.02-- 82.9----
2024-05-30 12:42 am NW 2.9 7.0----30.02-- 83.1----
2024-05-30 12:36 amWNW 4.1 7.0----30.02-- 83.1----
2024-05-30 12:30 amWNW 4.1 7.0----30.02- 80.2 83.3----
2024-05-30 12:24 amWNW 4.1 7.0----30.02- 80.4 83.5----
2024-05-30 12:18 amWNW 4.1 7.0----30.02- 80.4 83.5----
2024-05-30 12:12 amWNW 5.1 7.0----30.02- 80.4 83.5----
2024-05-30 12:06 am NW 4.1 7.0----30.02- 80.2 83.5----
2024-05-30 12:00 amWNW 2.9 7.0----30.02+0.02 80.1 83.5----
2024-05-29 11:54 pm NW 4.1 7.0----30.01- 79.7 83.3----
2024-05-29 11:48 pm NW 4.1 7.0----30.01- 79.7 83.5----
2024-05-29 11:42 pm NW 4.1 6.0----30.01- 80.2 83.5----
2024-05-29 11:36 pmWNW 5.1 7.0----30.01- 80.6 83.7----
2024-05-29 11:30 pm NW 4.1 8.0----30.01- 81.0 83.7----
2024-05-29 11:24 pmWNW 4.1 8.0----30.01- 81.1 83.8----
2024-05-29 11:18 pm NW 4.1 7.0----30.01- 81.1 83.8----
2024-05-29 11:12 pmWNW 4.1 7.0----30.01- 81.0 84.0----
2024-05-29 11:06 pmWNW 2.9 6.0----30.01- 80.4 84.2----
2024-05-29 11:00 pm NW 4.1 6.0----30.01+0.02 80.6 84.2----
2024-05-29 10:54 pm NW 4.1 6.0----30.01- 81.3 84.4----
2024-05-29 10:48 pmWNW 4.1 7.0----30.01- 81.5 84.4----
2024-05-29 10:42 pmWNW 2.9 7.0----30.01- 81.7 84.6----
2024-05-29 10:36 pm NW 4.1 7.0----30.00- 81.5 84.6----
2024-05-29 10:30 pm NW 4.1 8.0----30.00- 81.7 84.6----
2024-05-29 10:24 pmWNW 5.1 7.0----30.00- 81.9 84.7----
2024-05-29 10:18 pmWNW 4.1 6.0----30.00- 82.4 84.7----
2024-05-29 10:12 pmWNW 4.1 7.0----30.00- 82.9 84.7----
2024-05-29 10:06 pmWNW 5.1 8.0----30.00- 83.1 84.7----
2024-05-29 10:00 pm NW 2.9 6.0----29.99+0.02 82.9 84.7----
2024-05-29 09:54 pmWNW 2.9 6.0----29.99- 82.8 84.7----
2024-05-29 09:48 pm NW 4.1 5.1----29.99- 82.9 84.7----
2024-05-29 09:42 pmWNW 2.9 7.0----29.99- 83.3 84.7----
2024-05-29 09:36 pmWNW 5.1 7.0----29.99- 83.7 84.7----
2024-05-29 09:30 pmWNW 5.1 6.0----29.99- 84.2 84.9----
2024-05-29 09:24 pm W 4.1 6.0----29.99- 84.0 84.9----
2024-05-29 09:18 pm W 5.1 6.0----30.00- 84.6 84.9----
2024-05-29 09:12 pm W 4.1 6.0----30.00- 84.9 84.9----
2024-05-29 09:06 pm W 5.1 6.0----30.00- 84.7 84.9----
2024-05-29 09:00 pm W 5.1 6.0----30.00+0.04 84.2 84.9----
2024-05-29 08:54 pm W 2.9 5.1----30.00- 83.8 84.9----
2024-05-29 08:48 pm W 4.1 5.1----30.00- 84.4 84.9----
2024-05-29 08:42 pm W 4.1 5.1----30.00- 85.1 84.9----
2024-05-29 08:36 pm W 4.1 5.1----29.99- 85.3 84.9----
2024-05-29 08:30 pmWNW 2.9 6.0----29.99- 85.6 84.9----
2024-05-29 08:24 pmWNW 5.1 6.0----29.99- 86.0 84.9----
2024-05-29 08:18 pmWNW 5.1 6.0----29.99- 86.4 84.7----
2024-05-29 08:12 pm W 5.1 6.0----29.99- 86.7 84.7----
2024-05-29 08:06 pm W 5.1 6.0----29.99- 87.1 84.7----
2024-05-29 08:00 pm W 5.1 7.0----29.99+0.01 87.4 84.7----
2024-05-29 07:54 pmWNW 6.0 7.0----29.99- 87.8 84.7----
2024-05-29 07:48 pmWNW 5.1 8.0----29.99-- 84.6----
2024-05-29 07:42 pmWNW 6.0 8.9----29.99-- 84.6----
2024-05-29 07:36 pmWNW 7.0 9.9----29.98-- 84.4----
2024-05-29 07:30 pm W 7.0 9.9----29.98- 89.1 84.4----
2024-05-29 07:24 pm W 8.0 9.9----29.98- 89.6 84.2----
2024-05-29 07:18 pm W 7.0 8.9----29.98- 89.8 84.2----
2024-05-29 07:12 pm W 8.0 8.9----29.98- 90.0 84.0----
2024-05-29 07:06 pm W 7.0 12.0----29.98- 89.8 83.8----
2024-05-29 07:00 pmWNW 8.0 11.1----29.98-0.01 89.6 83.8----
2024-05-29 06:54 pm NW 4.1 11.1----29.97- 89.8 83.7----
2024-05-29 06:48 pmWNW 7.0 11.1----29.97- 90.0 83.5----
2024-05-29 06:42 pm NW 4.1 8.0----29.97- 90.1 83.3----
2024-05-29 06:36 pm NW 6.0 11.1----29.97- 90.0 83.3----
2024-05-29 06:30 pm NW 6.0 11.1----29.97- 90.1 83.1----
2024-05-29 06:24 pmWNW 5.1 11.1----29.97- 90.0 83.1----
2024-05-29 06:18 pmWNW 6.0 11.1----29.96- 90.3 83.1----
2024-05-29 06:12 pm W 8.0 11.1----29.96- 90.0 83.1----
2024-05-29 06:06 pmWNW 8.0 11.1----29.96- 90.3 83.1----
2024-05-29 06:00 pmWNW 5.1 9.9----29.96-0.05 90.3 83.1----
2024-05-29 05:54 pm NW 6.0 12.0----29.96- 90.5 83.1----
2024-05-29 05:48 pmWNW 5.1 11.1----29.97- 90.5 83.1----
2024-05-29 05:42 pmWNW 7.0 11.1----29.97- 90.3 83.1----
2024-05-29 05:36 pmWNW 6.0 9.9----29.97- 90.1 83.1----
2024-05-29 05:30 pm W 9.9 14.0----29.97- 90.1 83.1----
2024-05-29 05:24 pmWNW 8.0 12.0----29.98- 90.1 83.1----
2024-05-29 05:18 pm NW 6.0 8.9----29.97- 90.5 83.1----
2024-05-29 05:12 pm NW 5.1 9.9----29.97- 90.1 82.9----
2024-05-29 05:06 pm NW 6.0 11.1----29.97- 90.3 82.9----
2024-05-29 05:00 pmWNW 7.0 12.0----29.97-0.05 90.3 82.9----
2024-05-29 04:54 pmWNW 9.9 13.0----29.97- 90.1 82.9----
2024-05-29 04:48 pmWNW 11.1 15.0----29.97-- 82.9----
2024-05-29 04:42 pmWNW 4.1 11.1----29.97-- 82.9----
2024-05-29 04:36 pm W 7.0 11.1----29.98-- 82.9----
2024-05-29 04:30 pmWNW 6.0 11.1----29.98- 89.8 82.9----
2024-05-29 04:24 pmWNW 6.0 8.9----29.98- 90.1 82.9----
2024-05-29 04:18 pmWNW 6.0 11.1----29.98- 90.0 82.8----
2024-05-29 04:12 pm W 9.9 13.0----29.98- 89.8 82.6----
2024-05-29 04:06 pmWNW 9.9 13.0----29.99- 89.6 82.4----
2024-05-29 04:00 pmWNW 7.0 14.0----29.99-0.05 89.4 82.2----
2024-05-29 03:54 pmWNW 5.1 12.0----29.99- 89.6 82.0----
2024-05-29 03:48 pm-------30.00- 89.2 81.9----
2024-05-29 03:42 pm W 8.0 13.0----30.00- 89.2 81.7----
2024-05-29 03:36 pmWNW 9.9 14.0----30.00- 89.4 81.5----
2024-05-29 03:30 pmWNW 7.0 12.0----30.00- 89.2 81.3----
2024-05-29 03:24 pm-------30.00- 89.1 81.1----
2024-05-29 03:18 pmWNW 8.0 14.0----30.01- 89.1 81.0----
2024-05-29 03:12 pmWNW 7.0 11.1----30.01- 89.2 80.8----
2024-05-29 03:06 pmWNW 5.1 11.1----30.01- 89.1 80.6----
2024-05-29 03:00 pm-------30.01- 88.9 80.6----
2024-05-29 02:54 pmWNW 8.0 11.1----30.02- 88.9 80.4----
2024-05-29 02:48 pmWNW 8.9 15.9----30.01- 88.5 80.4----
2024-05-29 02:42 pm NW 5.1 8.9----30.01- 88.5 80.6----
2024-05-29 02:36 pm-------30.02- 88.3 80.6----
2024-05-29 02:30 pm-------30.02- 88.3 80.6----
2024-05-29 02:24 pm-------30.02- 88.2 80.6----
2024-05-29 02:18 pmWNW 7.0 12.0----30.02- 88.3 80.8----
2024-05-29 02:12 pmWNW 7.0 9.9----30.02- 88.0 80.8----
2024-05-29 02:06 pm NW 5.1 8.9----30.03- 87.4 80.8----
2024-05-29 02:00 pmWNW 7.0 13.0----30.03-0.01 87.8 81.0----
2024-05-29 01:54 pm-------30.03- 87.4 81.1----
2024-05-29 01:48 pmWNW 8.0 11.1----30.03- 87.6 81.1----
2024-05-29 01:42 pm-------30.03- 87.3 81.3----
2024-05-29 01:36 pm-------30.03- 87.3 81.5----
2024-05-29 01:30 pm W 9.9 13.0------------
2024-05-29 01:24 pmWNW 11.1 15.9------------
2024-05-29 01:18 pmWNW 6.0 9.9----30.03-- 81.9----
2024-05-29 01:12 pm W 7.0 11.1----30.03-- 81.9----
2024-05-29 01:06 pmWNW 9.9 12.0----30.04-- 82.0----
2024-05-29 01:00 pmWNW 7.0 11.1----30.04+0.00 87.6 82.0----
2024-05-29 12:54 pmWNW 9.9 13.0----30.04- 87.4 82.2----
2024-05-29 12:48 pm W 7.0 12.0------- 82.4----
2024-05-29 12:42 pmWNW 4.1 8.0------- 82.4----
2024-05-29 12:36 pmWNW 5.1 11.1------- 82.6----
2024-05-29 12:30 pm NW 4.1 7.0------ 87.4-----
2024-05-29 12:24 pm W 5.1 8.9------ 87.4-----
2024-05-29 12:18 pm NW 5.1 8.9------------
2024-05-29 12:12 pmWNW 5.1 8.0------------
2024-05-29 12:06 pmNNW 5.1 6.0------------
2024-05-29 12:00 pmNNW 2.9 7.0------ 87.4-----
2024-05-29 11:54 amNNW 5.1 8.0------ 86.7-----
2024-05-29 11:48 amNNW 5.1 7.0----30.05-- 82.6----
2024-05-29 11:42 amNNW 2.9 6.0----30.05-- 82.4----
2024-05-29 11:36 am NW 1.9 6.0----30.05-- 82.4----
2024-05-29 11:30 amNNW 4.1 7.0------- 82.4----
2024-05-29 11:24 amNNW 4.1 6.0------- 82.6----
2024-05-29 11:18 amNNW 4.1 8.9----30.04- 86.5 82.8----
2024-05-29 11:12 amNNW 5.1 7.0----30.04- 86.5 82.9----
2024-05-29 11:06 amNNW 4.1 6.0----30.04- 86.7 82.9----
2024-05-29 11:00 am N 4.1 7.0----30.04+0.03 86.9 83.1----
2024-05-29 10:54 am N 2.9 6.0----30.04- 86.0 83.3----
2024-05-29 10:48 am N 4.1 6.0----30.04-- 83.3----
2024-05-29 10:42 amNNW 4.1 6.0----30.03-- 83.3----
2024-05-29 10:36 amNNW 4.1 6.0----30.03-- 83.3----
2024-05-29 10:30 amNNW 4.1 6.0----30.04- 85.1 83.3----
2024-05-29 10:24 amNNW 2.9 5.1----30.04- 84.9 83.3----
2024-05-29 10:18 am N 2.9 5.1----30.04- 84.7 83.3----
2024-05-29 10:12 amNNW 2.9 6.0----30.04- 84.7 83.3----
2024-05-29 10:06 amNNW 2.9 4.1----30.03- 84.6 83.1----
2024-05-29 10:00 amNNW 2.9 4.1----30.03+0.04 84.4 83.1----
2024-05-29 09:54 amNNW 2.9 5.1----30.03- 84.0 83.1----
2024-05-29 09:48 amNNW 2.9 5.1----30.03- 83.8 83.1----
2024-05-29 09:42 amNNW 4.1 5.1----30.03- 83.5 83.1----
2024-05-29 09:36 amNNW 2.9 5.1----30.03- 83.1 83.1----
2024-05-29 09:30 amNNW 2.9 5.1----30.03- 82.8 82.9----
2024-05-29 09:24 amNNW 4.1 6.0----30.03- 82.4 82.9----
2024-05-29 09:18 amNNW 4.1 6.0----30.03- 82.0 82.9----
2024-05-29 09:12 am N 4.1 6.0----30.03- 81.7 82.9----
2024-05-29 09:06 amNNW 4.1 5.1----30.03- 81.3 82.9----
2024-05-29 09:00 amNNW 4.1 6.0----30.03+0.05 81.1 82.9----
2024-05-29 08:54 amNNW 4.1 7.0----30.03- 81.0 82.9----
2024-05-29 08:48 amNNW 1.9 7.0----30.03- 81.0 82.9----
2024-05-29 08:42 am NW 2.9 8.0----30.04- 80.6 82.9----
2024-05-29 08:36 am NW 5.1 7.0----30.04- 80.4 82.9----
2024-05-29 08:30 am NW 4.1 7.0----30.04- 79.9 82.9----
2024-05-29 08:24 am NW 2.9 5.1----30.02- 79.5 82.9----
2024-05-29 08:18 am NW 2.9 5.1----30.01- 79.3 82.9----
2024-05-29 08:12 amNNW 2.9 5.1----30.01- 79.0 82.9----
2024-05-29 08:06 am NW 1.9 5.1----30.01- 78.6 83.1----
2024-05-29 08:00 am NW 1.9 4.1----30.01+0.04 78.4 83.1----
2024-05-29 07:54 am NW 2.9 5.1----30.01- 78.3 83.1----
2024-05-29 07:48 am NW 2.9 6.0----30.01-- 83.1----
2024-05-29 07:42 am NW 2.9 6.0----30.01-- 83.1----
2024-05-29 07:36 am NW 2.9 5.1----30.01-- 83.1----
2024-05-29 07:30 am NW 1.9 5.1----30.01- 77.2 83.1----
2024-05-29 07:24 am NW 1.9 6.0----30.01- 77.4 83.1----
2024-05-29 07:18 am NW 2.9 5.1----30.00- 77.4 83.1----
2024-05-29 07:12 am NW 2.9 5.1----30.00- 77.4 83.1----
2024-05-29 07:06 am NW 1.9 4.1----29.99- 77.4 82.9----
2024-05-29 07:00 amWNW 2.9 5.1----29.99+0.04 77.0 82.9----
2024-05-29 06:54 am NW 1.9 4.1----29.99- 77.2 82.9----
2024-05-29 06:48 amNNW 2.9 4.1----29.98- 77.4 82.8----
2024-05-29 06:42 am NW 2.9 4.1----29.99- 77.2 82.8----
2024-05-29 06:36 amNNW 4.1 5.1----29.99- 76.6 82.8----
2024-05-29 06:30 amNNW 1.9 4.1----29.99- 76.3 82.6----
2024-05-29 06:24 am NW 1.9 5.1----29.99- 76.5 82.6----
2024-05-29 06:18 am NW 1.9 4.1----29.99- 76.5 82.4----
2024-05-29 06:12 am NW 1.9 4.1----29.98- 76.5 82.2----
2024-05-29 06:06 am NW 2.9 4.1----29.98- 76.5 82.2----
2024-05-29 06:00 amWNW 2.9 4.1----29.98+0.03 76.5 82.0----
2024-05-29 05:54 am NW 1.9 4.1----29.98- 76.6 81.9----
2024-05-29 05:48 am NW 1.9 5.1----29.98- 76.5 81.9----
2024-05-29 05:42 am NW 1.9 5.1----29.98- 76.8 81.7----
2024-05-29 05:36 am NW 1.9 5.1----29.98- 77.2 81.5----
2024-05-29 05:30 am NW 1.9 5.1----29.98- 77.2 81.5----
2024-05-29 05:24 am NW 1.9 6.0----29.98- 77.5 81.3----
2024-05-29 05:18 amWNW 4.1 7.0----29.98- 77.4 81.3----
2024-05-29 05:12 amWNW 2.9 6.0----29.97- 77.4 81.3----
2024-05-29 05:06 amNNW 2.9 5.1----29.97- 77.4 81.1----
2024-05-29 05:00 amNNW 1.0 4.1----29.97+0.00 77.5 81.1----
2024-05-29 04:54 amNNW 2.9 5.1----29.97- 77.2 81.1----
2024-05-29 04:48 amNNW 2.9 5.1----29.97- 77.5 81.1----
2024-05-29 04:42 amNNW 2.9 5.1----29.96- 77.7 81.1----
2024-05-29 04:36 amNNW 1.9 5.1----29.96- 77.9 81.0----
2024-05-29 04:30 amNNW 1.9 4.1----29.96- 77.9 81.0----
2024-05-29 04:24 amNNW 2.9 5.1----29.96- 78.4 81.0----
2024-05-29 04:18 am NW 2.9 6.0----29.96- 78.6 81.0----
2024-05-29 04:12 amNNW 2.9 5.1----29.96- 78.8 81.0----
2024-05-29 04:06 am NW 2.9 5.1----29.96- 79.2 81.0----
2024-05-29 04:00 am NW 2.9 5.1----29.96- 79.5 80.8----
2024-05-29 03:54 amNNW 2.9 5.1----29.95- 79.9 80.8----
2024-05-29 03:48 amNNW 4.1 5.1----29.95- 79.9 80.8----
2024-05-29 03:42 am NW 2.9 4.1----29.95- 80.1 80.8----
2024-05-29 03:36 amNNW 2.9 6.0----29.95- 80.2 80.8----
2024-05-29 03:30 amNNW 2.9 5.1----29.95- 80.2 80.8----
2024-05-29 03:24 am NW 2.9 5.1----29.95- 80.6 80.8----
2024-05-29 03:18 am NW 1.9 4.1----29.95- 80.8 80.8----
2024-05-29 03:12 am NW 1.0 2.9----29.96- 81.1 80.8----
2024-05-29 03:06 am W 1.9 4.1----29.95- 81.3 80.8----
2024-05-29 03:00 amWNW 1.0 2.9----29.95-0.03 81.3 80.8----
2024-05-29 02:54 am- 0.0 0.0----29.96- 81.3 80.8----